This is the latest recevied weather packets stored in our database for station/object EA7RX-4. If no packets are shown the sender has not sent any weather packets the latest 10 day(s).
| Time | Temp. | Humidity | Pressure | Rain* | Wind** | Luminosity | Snow |
|---|---|---|---|---|---|---|---|
| 1788051603 | 19.44° C | 33% | 1018.5 hPa | 0 mm | - | 0 W/m² | - |
| 1788051003 | 19.44° C | 32% | 1018.3 hPa | 0 mm | - | 0 W/m² | - |
| 1788050403 | 19.44° C | 32% | 1018.5 hPa | 0 mm | - | 0 W/m² | - |
| 1788049803 | 19.44° C | 32% | 1018.5 hPa | 0 mm | - | 0 W/m² | - |
| 1788049203 | 19.44° C | 31% | 1018.5 hPa | 0 mm | - | 0 W/m² | - |
| 1788048603 | 20° C | 30% | 1018.3 hPa | 0 mm | - | 0 W/m² | - |
| 1788048003 | 20.56° C | 29% | 1018.3 hPa | 0 mm | - | 0 W/m² | - |
| 1788047403 | 22.22° C | 26% | 1018.6 hPa | 0 mm | - | 0 W/m² | - |
| 1788046803 | 22.78° C | 24% | 1018.5 hPa | 0 mm | - | 0 W/m² | - |
| 1788046203 | 23.33° C | 23% | 1018.6 hPa | 0 mm | - | 0 W/m² | - |
| 1788045603 | 23.89° C | 23% | 1018.7 hPa | 0 mm | - | 0 W/m² | - |
| 1788045003 | 23.89° C | 23% | 1018.6 hPa | 0 mm | - | 0 W/m² | - |
| 1788044403 | 23.89° C | 21% | 1019 hPa | 0 mm | - | 0 W/m² | - |
| 1788043803 | 23.89° C | 21% | 1018.7 hPa | 0 mm | - | 0 W/m² | - |
| 1788043203 | 23.89° C | 22% | 1018.8 hPa | 0 mm | - | 0 W/m² | - |
| 1788042603 | 23.89° C | 22% | 1018.8 hPa | 0 mm | - | 0 W/m² | - |
| 1788042003 | 24.44° C | 21% | 1018.7 hPa | 0 mm | - | 0 W/m² | - |
| 1788041403 | 24.44° C | 21% | 1018.9 hPa | 0 mm | - | 0 W/m² | - |
| 1788040803 | 24.44° C | 22% | 1018.9 hPa | 0 mm | - | 0 W/m² | - |
| 1788040203 | 24.44° C | 23% | 1018.9 hPa | 0 mm | - | 0 W/m² | - |
| 1788039603 | 24.44° C | 23% | 1019 hPa | 0 mm | - | 0 W/m² | - |
| 1788039003 | 24.44° C | 23% | 1018.9 hPa | 0 mm | - | 0 W/m² | - |
| 1788038403 | 24.44° C | 23% | 1019 hPa | 0 mm | - | 0 W/m² | - |
| 1788037803 | 24.44° C | 24% | 1018.9 hPa | 0 mm | - | 0 W/m² | - |
| 1788037203 | 24.44° C | 24% | 1018.9 hPa | 0 mm | - | 0 W/m² | - |
* Rain latest hour (hover to see other rain measurements)
** Current wind speed in m/s (hover to see current wind gust speed)